Regional Weather Roundup
Issued by NWS

Home | Current Version | Previous Version | Graphics & Text | Print | Product List | Glossary On
Versions: 1 2 3 4 5 6 7 8 9 10 11 12 13 14 15 16 17 18 19 20 21 22 23 24 25 26 27 28 29 30 31 32 33 34 35 36 37 38 39 40 41 42 43 44 45 46 47 48 49 50
000
ASUS43 KBIS 180820
RWRND

NORTH DAKOTA REGIONAL WEATHER ROUNDUP
NATIONAL WEATHER SERVICE BISMARCK ND
300 AM CDT FRI APR 18 2014

NOTE: "FAIR" INDICATES FEW OR NO CLOUDS BELOW 12,000 FEET WITH NO
SIGNIFICANT WEATHER AND/OR OBSTRUCTIONS TO VISIBILITY.


NDZ001>003-009>011-017-180900-
NORTHWEST NORTH DAKOTA

CITY           SKY/WX    TMP DP  RH WIND       PRES   REMARKS
WILLISTON      CLOUDY    38  30  73 SE8       29.96F
MINOT          CLEAR     31  22  69 E12       30.10F
MINOT AFB      CLEAR     31  23  71 SE15      30.10F
$$

NDZ018>021-031>035-040>046-180900-
SOUTHWEST NORTH DAKOTA

CITY           SKY/WX    TMP DP  RH WIND       PRES   REMARKS
BISMARCK       MOCLDY    34  22  61 E12       30.11F
DICKINSON      CLOUDY    34  22  61 SE17      29.94F
GARRISON         N/A     35  24  64 SE13      30.08F
HETTINGER ARPT CLOUDY    33  23  66 SE15      29.95F
$$

NDZ004>008-012>016-024-026-027-054-180900-
NORTHEAST NORTH DAKOTA

CITY           SKY/WX    TMP DP  RH WIND       PRES   REMARKS
GRAND FORKS    CLOUDY    31  21  66 E5        30.28F
GRND FRKS AFB  CLOUDY    31  20  62 E5        30.28F
DEVILS LAKE    CLOUDY    32  16  51 E16       30.22S
$$

NDZ022-023-025-028>030-036>039-047>053-180900-
SOUTHEAST NORTH DAKOTA

CITY           SKY/WX    TMP DP  RH WIND       PRES   REMARKS
FARGO          CLOUDY    33  22  63 E7        30.28S
JAMESTOWN      CLOUDY    33  21  61 E12       30.20F
$$




USA.gov is the U.S. government's official web portal to all federal, state and local government web resources and services.